Regional Weather Roundup
Issued by NWS

Home | Current Version | Previous Version | Text Only | Print | Product List | Glossary Off
Versions: 1 2 3 4 5 6 7 8 9 10 11 12 13 14 15 16 17 18 19 20 21 22 23 24 25 26 27 28 29 30 31 32 33 34 35 36 37 38 39 40 41 42 43 44 45 46 47 48 49 50

000
ASUS43 KIND 250409
RWRIN

WEATHER ROUNDUP FOR INDIANA
NATIONAL WEATHER SERVICE INDIANAPOLIS IN
1200 AM EDT WED MAY 25 2016

NOTE: "FAIR" INDICATES FEW OR NO CLOUDS BELOW 12,000 FEET WITH NO
SIGNIFICANT WEATHER AND/OR OBSTRUCTIONS TO VISIBILITY.

* - STATION DOES NOT REPORT WEATHER SUCH AS PRECIPITATION OR FOG.

+ - STATION NOT QUALITY CONTROLLED BY THE NATIONAL WEATHER SERVICE.
    USE DATA WITH CAUTION...ESPECIALLY DEWPOINT AND RELATIVE
    HUMIDITY OBSERVATIONS.

INZ001>003-010>013-019-020-250500-
NORTHWEST INDIANA

CITY           SKY/WX    TMP DP  RH WIND       PRES   REMARKS
GARY /AIRPORT/ CLOUDY    77  62  59 S6        29.99F
KNOX *+        CLEAR     70  41  35 S6        30.02S
LA PORTE +     CLEAR     75  54  47 SW8       30.02S
MICHIGAN CITY+ PTCLDY    73  54  49 S7        30.01S
MONTICELLO +   CLEAR     71  49  44 S6        30.03F
RENSSELAER +   CLEAR     73  52  46 S8        30.02F
VALPARAISO     PTCLDY    73  54  51 S8        30.01S

$$

LMZ046-743>745-250500-
SOUTHERN LAKE MICHIGAN

STATION/POSITION TIME  TEMP    WIND        PRES    WAVE
                       AIR SEA DIR/SP/G            HT
                 (UTC) (F)     (DEG/KT/KT) (MB)    (FT)
BURNS HARBOR     0300   76     190/ 10/ 13 1015.9R
MICHIGAN CITY    0300   77     170/ 13/ 16   N/A
5NW MICH CITY    0400   68 58  200/ 10/ 10   N/A     1

$$

INZ004-005-014>016-021>024-250500-
NORTH CENTRAL INDIANA

CITY           SKY/WX    TMP DP  RH WIND       PRES   REMARKS
GOSHEN         CLEAR     68  49  50 S8        30.03R
LOGANSPORT +   CLEAR     64  54  68 S7        30.05F
PERU/GRISSOM   CLEAR     64  54  68 SW6       30.04S
ROCHESTER +    CLEAR     73  54  49 SW7       30.05S
SOUTH BEND     PTCLDY    70  50  49 SW6       30.02R
WARSAW +       PTCLDY    68  50  52 CALM      30.04S

$$

INZ006>009-017-018-025>027-250500-
NORTHEAST INDIANA

CITY           SKY/WX    TMP DP  RH WIND       PRES   REMARKS
ANGOLA *+      CLEAR     63  54  72 CALM      30.04S
AUBURN +       CLEAR     63  46  55 CALM      30.05S
FORT WAYNE     PTCLDY    64  48  56 SW7       30.06R
HUNTINGTON +   CLEAR    N/A N/A N/A CALM      30.05S

$$

INZ028-029-035-036-043>045-051>053-250500-
WEST CENTRAL INDIANA

CITY           SKY/WX    TMP DP  RH WIND       PRES   REMARKS
CRAWFORDSVL +  PTCLDY    62  55  77 SE6       30.05F
GREENCASTLE +  CLEAR     63  59  88 CALM      30.06F
LAFAYETTE      CLEAR     67  55  65 CALM      30.03F
TERRE HAUTE    CLEAR     69  56  62 CALM      30.05S

$$

INZ030>032-037>040-046>048-054>057-064-065-250500-
CENTRAL INDIANA

CITY           SKY/WX    TMP DP  RH WIND       PRES   REMARKS
CP ATTERBURY + CLEAR     61  55  82 CALM      30.08R
FISHERS *+     PTCLDY    64  57  77 CALM      30.07S
FRANKFORT +      N/A     67  44  42 CALM      30.07S
GREENWOOD *+   PTCLDY    66  55  68 CALM      30.08R
INDIANAPOLIS   MOCLDY    71  54  54 S3        30.05S
-EAGLE CREEK   CLOUDY    70  59  68 CALM      30.06S
KOKOMO *+      CLEAR     66  52  59 SW8       30.06R
MARION +       CLEAR     66  52  59 SW7       30.07S
SHELBYVILLE    CLEAR     67  55  65 SE3       30.07R
ZIONSVILLE +   PTCLDY    66  54  65 CALM      30.08S

$$

INZ033-034-041-042-049-050-058-059-250500-
EAST CENTRAL INDIANA

CITY           SKY/WX    TMP DP  RH WIND       PRES   REMARKS
MUNCIE         CLEAR     71  51  49 S5        30.07R

$$

INZ060-061-067>069-081>083-085>088-250500-
SOUTHWEST INDIANA

CITY           SKY/WX    TMP DP  RH WIND       PRES   REMARKS
EVANSVILLE     PTCLDY    71  58  63 CALM      30.06R
HUNTINGBURG *+ MOCLDY    70  55  60 SE3       30.06S
WASHINGTON +   CLOUDY    70  60  72 S5        30.05S

$$

INZ062-063-066-070>080-084-089>092-250500-
SOUTH CENTRAL AND SOUTHEAST INDIANA

CITY           SKY/WX    TMP DP  RH WIND       PRES   REMARKS
BEDFORD +      PTCLDY    70  64  83 SE3       30.06S
BLOOMINGTON    CLEAR     69  54  58 S6        30.07R
MADISON *+     CLEAR     64  55  72 CALM      30.11S
NORTH VERNON + CLEAR     63  63 100 CALM      30.09S
SEYMOUR +      CLEAR     68  59  73 S5        30.07S

$$





USA.gov is the U.S. government's official web portal to all federal, state and local government web resources and services.